Flag for Canada Weather past 2 weeks in Halifax, Nova Scotia, Canada

Now
66 °F

Passing clouds.


Feels Like: 66 °F
Forecast: 61 / 74 °F
Wind: 8 mph from Northwest

Location: Halifax International Airport

Current Time: Aug 20, 2014 at 10:21:52 AM

Latest Report: Aug 20, 2014 at 9:00 AM


Visibility: 15 mi

Pressure: 29.95 "Hg

Humidity: 73%

Dew point: 57 °F

Location of HalifaxLocation

Historic Weather in Halifax — Graph

°F

Halifax temperature yesterday

Maximum temperature yesterday: 72 °F (at 2:00 PM)
Minimum temperature yesterday: 57 °F (at 5:00 AM)
Average temperature yesterday: 64 °F

Past Weeks' High & Low Weather Summary

 TemperatureHumidityPressure
High79 °F (Aug 6, 5:00 PM)100% (Aug 5, 9:00 AM)30.19 "Hg (Aug 5, 9:00 AM)
Low55 °F (Aug 12, 3:00 AM)51% (Aug 6, 4:00 PM)29.59 "Hg (Aug 18, 2:00 PM)
Average64 °F83%29.91 "Hg
* Reported Aug 5 9:00 AM — Aug 20 9:00 AM, Halifax, Weather by CustomWeather, © 2014

Note: Actual official high and low records may vary slightly from our data, if they occured in-between our weather recording intervals... More about our weather records

Advertising

Halifax weather history for previous 24 hours

 ConditionsComfort  
Time TempWeatherWind HumidityBarometerVisibility
9:00 AM
Aug 20
66 °FPassing clouds.8 mph73%29.95 "Hg15 mi
8:00 AM63 °FPassing clouds.8 mph83%29.94 "Hg15 mi
7:00 AM61 °FPassing clouds.7 mph83%29.93 "Hg15 mi
6:00 AM59 °FPassing clouds.7 mph88%29.91 "Hg15 mi
5:00 AM59 °FClear.8 mph88%29.89 "Hg15 mi
4:00 AM61 °FClear.6 mph83%29.88 "Hg15 mi
3:00 AM61 °FClear.8 mph83%29.88 "Hg15 mi
2:00 AM61 °FPassing clouds.12 mph83%29.87 "Hg15 mi
1:00 AM64 °FPassing clouds.14 mph78%29.87 "Hg15 mi
12:00 AM64 °FPassing clouds.13 mph78%29.87 "Hg15 mi
11:00 PM
Aug 19
64 °FPassing clouds.13 mph78%29.87 "Hg15 mi
10:00 PM64 °FPassing clouds.10 mph78%29.86 "Hg15 mi
9:00 PM66 °FScattered clouds.6 mph73%29.85 "Hg15 mi
8:00 PM68 °FScattered clouds.8 mph69%29.84 "Hg15 mi
7:00 PM70 °FScattered clouds.12 mph64%29.82 "Hg15 mi
6:00 PM72 °FScattered clouds.15 mph61%29.80 "Hg15 mi
5:00 PM72 °FScattered clouds.15 mph61%29.79 "Hg15 mi
4:00 PM72 °FScattered clouds.13 mph61%29.79 "Hg15 mi
3:00 PM72 °FPassing clouds.14 mph61%29.78 "Hg15 mi
2:00 PM72 °FPartly sunny.18 mph61%29.78 "Hg15 mi
1:00 PM70 °FPartly sunny.14 mph64%29.77 "Hg15 mi
12:00 PM66 °FPartly sunny.9 mph73%29.77 "Hg15 mi
11:00 AM64 °FPartly sunny.13 mph83%29.77 "Hg14 mi
10:00 AM61 °FPartly sunny.9 mph88%29.75 "Hg15 mi
Weather by CustomWeather, © 2014

See weather overviewHow to use our weather pages